 day,  time,  air_temp(C),  RH(%),  ground_temp10cm(C),  ground_temp20cm(C),  ground_temp40cm(C),  precipitation(mm/h),  Solar_Radiation(MJ/m2h),  lack, 
 07/01/01, 01:00,  -5.5,  68,   0.9,   1.5,   2.8,   0.0,  1.02, 
 07/01/01, 02:00,  -7.3,  78,   0.8,   1.5,   2.8,   0.0,  1.19, 
 07/01/01, 03:00,  -6.8,  84,   0.8,   1.5,   2.8,   0.0,  1.17, 
 07/01/01, 04:00,  -6.6,  91,   0.8,   1.5,   2.8,   0.0,  1.16, 
 07/01/01, 05:00,  -7.5,  84,   0.8,   1.5,   2.8,   0.0,  1.09, 
 07/01/01, 06:00,  -6.5,  65,   0.8,   1.5,   2.8,   0.0,  1.10, 
 07/01/01, 07:00,  -5.9,  57,   0.8,   1.5,   2.8,   0.0,  1.00, 
 07/01/01, 08:00,  -4.6,  51,   0.8,   1.5,   2.8,   0.0,  0.96, 
 07/01/01, 09:00,  -2.9,  65,   0.8,   1.5,   2.8,   0.0,  1.09, 
 07/01/01, 10:00,  -0.2,  53,   0.8,   1.5,   2.8,   0.0,  1.14, 
 07/01/01, 11:00,   0.5,  48,   0.9,   1.5,   2.8,   0.0,  1.28, 
 07/01/01, 12:00,   1.0,  53,   0.9,   1.5,   2.8,   0.0,  1.51, 
 07/01/01, 13:00,   2.3,  54,   0.9,   1.5,   2.8,   0.0,  1.66, 
 07/01/01, 14:00,   2.4,  53,   0.9,   1.6,   2.9,   0.0,  1.70, 
 07/01/01, 15:00,   2.6,  38,   0.9,   1.5,   2.8,   0.0,  1.72, 
 07/01/01, 16:00,   2.4,  44,   0.8,   1.6,   2.8,   0.0,  1.68, 
 07/01/01, 17:00,  -0.9,  73,   0.9,   1.6,   2.8,   0.0,  1.57, 
 07/01/01, 18:00,   0.6,  49,   0.8,   1.5,   2.8,   0.0,  1.55, 
 07/01/01, 19:00,  -1.0,  72,   0.8,   1.5,   2.8,   0.0,  1.52, 
 07/01/01, 20:00,   0.6,  52,   0.9,   1.6,   2.8,   0.0,  1.57, 
 07/01/01, 21:00,   0.8,  55,   0.8,   1.5,   2.8,   0.0,  1.61, 
 07/01/01, 22:00,   0.8,  64,   0.9,   1.5,   2.8,   0.0,  1.52, 
 07/01/01, 23:00,   0.8,  64,   0.8,   1.5,   2.8,   0.0,  1.52, 
 07/01/02, 00:00,   0.5,  72,   0.9,   1.5,   2.8,   0.0,  1.53, 
 07/01/02, 01:00,   0.7,  75,   0.9,   1.6,   2.9,   0.0,  1.29, 
 07/01/02, 02:00,   0.6,  78,   0.8,   1.5,   2.8,   0.0,  1.54, 
 07/01/02, 03:00,   0.2,  80,   0.9,   1.5,   2.8,   0.0,  1.51, 
 07/01/02, 04:00,  -0.6,  83,   0.9,   1.5,   2.8,   0.0,  1.53, 
 07/01/02, 05:00,  -0.5,  86,   0.8,   1.5,   2.8,   0.0,  1.52, 
 07/01/02, 06:00,  -0.7,  86,   0.8,   1.5,   2.8,   0.0,  1.48, 
 07/01/02, 07:00,  -0.3,  80,   0.8,   1.5,   2.8,   0.0,  1.44, 
 07/01/02, 08:00,   0.0,  80,   0.9,   1.5,   2.8,   0.0,  1.44, 
 07/01/02, 09:00,   2.0,  72,   0.9,   1.5,   2.8,   0.0,  1.47, 
 07/01/02, 10:00,   2.8,  65,   0.8,   1.5,   2.8,   0.0,  1.49, 
 07/01/02, 11:00,   2.9,  72,   0.9,   1.6,   2.9,   0.0,  1.49, 
 07/01/02, 12:00,   2.6,  74,   0.9,   1.5,   2.8,   0.0,  1.56, 
 07/01/02, 13:00,   2.6,  73,   0.9,   1.5,   2.8,   0.0,  1.59, 
 07/01/02, 14:00,   2.0,  79,   0.9,   1.5,   2.8,   0.0,  1.59, 
 07/01/02, 15:00,   1.2,  86,   0.9,   1.5,   2.8,   0.0,  1.64, 
 07/01/02, 16:00,  -0.3,  95,   0.9,   1.5,   2.8,   0.0,  1.61, 
 07/01/02, 17:00,  -0.7,  97,   0.9,   1.5,   2.8,   0.0,  1.57, 
 07/01/02, 18:00,  -0.8,  96,   0.9,   1.5,   2.8,   0.0,  1.58, 
 07/01/02, 19:00,  -1.6,  99,   0.9,   1.5,   2.8,   0.0,  1.54, 
 07/01/02, 20:00,  -1.5,  99,   0.9,   1.5,   2.8,   0.0,  1.60, 
 07/01/02, 21:00,  -1.5,  99,   0.9,   1.5,   2.8,   0.0,  1.61, 
 07/01/02, 22:00,  -1.5,  99,   0.9,   1.5,   2.8,   0.0,  1.54, 
 07/01/02, 23:00,  -1.5,  99,   0.9,   1.5,   2.8,   0.0,  1.58, 
 07/01/03, 00:00,  -1.6,  99,   0.9,   1.5,   2.8,   0.0,  1.60, 
 07/01/03, 01:00,  -1.9,  99,   0.9,   1.5,   2.8,   0.0,  1.33, 
 07/01/03, 02:00,  -1.9,  98,   0.9,   1.5,   2.8,   0.0,  1.53, 
 07/01/03, 03:00,  -2.0,  99,   0.8,   1.5,   2.8,   0.0,  1.55, 
 07/01/03, 04:00,  -2.0,  98,   0.9,   1.5,   2.8,   0.0,  1.48, 
 07/01/03, 05:00,  -2.2,  93,   0.9,   1.5,   2.8,   0.0,  1.51, 
 07/01/03, 06:00,  -2.6,  93,   0.9,   1.6,   2.9,   0.0,  1.53, 
 07/01/03, 07:00,  -2.7,  96,   0.9,   1.5,   2.9,   0.0,  1.54, 
 07/01/03, 08:00,  -3.2,  99,   0.9,   1.5,   2.8,   0.0,  1.51, 
 07/01/03, 09:00,  -2.1,  90,   0.9,   1.5,   2.8,   0.0,  1.54, 
 07/01/03, 10:00,  -1.5,  92,   0.9,   1.5,   2.8,   0.0,  1.65, 
 07/01/03, 11:00,  -1.7,  95,   0.9,   1.6,   2.9,   0.0,  1.72, 
 07/01/03, 12:00,  -1.1,  88,   0.9,   1.6,   2.8,   0.0,  1.68, 
 07/01/03, 13:00,  -1.0,  88,   1.0,   1.6,   2.9,   0.0,  1.70, 
 07/01/03, 14:00,  -0.8,  89,   1.0,   1.5,   2.8,   0.0,  1.69, 
 07/01/03, 15:00,  -1.4,  90,   1.0,   1.5,   2.8,   0.0,  1.71, 
 07/01/03, 16:00,  -1.9,  93,   1.0,   1.5,   2.8,   0.0,  1.69, 
 07/01/03, 17:00,  -2.4,  95,   1.0,   1.5,   2.8,   0.0,  1.66, 
 07/01/03, 18:00,  -2.9,  98,   1.0,   1.5,   2.8,   0.0,  1.69, 
 07/01/03, 19:00,  -3.1,  98,   1.0,   1.5,   2.8,   0.0,  1.63, 
 07/01/03, 20:00,  -3.5,  99,   1.0,   1.6,   2.8,   0.0,  1.58, 
 07/01/03, 21:00,  -3.6,  99,   1.0,   1.6,   2.8,   0.0,  1.58, 
 07/01/03, 22:00,  -3.7,  99,   1.0,   1.5,   2.8,   0.0,  1.61, 
 07/01/03, 23:00,  -3.8,  99,   1.0,   1.5,   2.8,   0.0,  1.61, 
 07/01/04, 00:00,  -3.9,  99,   1.0,   1.5,   2.8,   0.0,  1.58, 
 07/01/04, 01:00,  -4.0,  99,   1.0,   1.5,   2.8,   0.0,  1.34, 
 07/01/04, 02:00,  -4.3,  99,   1.0,   1.6,   2.9,   0.0,  1.60, 
 07/01/04, 03:00,  -4.3,  99,   1.0,   1.5,   2.8,   0.0,  1.49, 
 07/01/04, 04:00,  -4.5,  98,   1.0,   1.6,   2.8,   0.0,  1.51, 
 07/01/04, 05:00,  -4.7,  97,   1.0,   1.6,   2.8,   0.0,  1.57, 
 07/01/04, 06:00,  -4.9,  96,   1.0,   1.6,   2.8,   0.0,  1.54, 
 07/01/04, 07:00,  -5.6,  96,   1.0,   1.6,   2.8,   0.0,  1.50, 
 07/01/04, 08:00,  -5.3,  96,   1.0,   1.6,   2.8,   0.0,  1.47, 
 07/01/04, 09:00,  -5.1,  94,   1.0,   1.6,   2.8,   0.0,  1.47, 
 07/01/04, 10:00,  -4.8,  91,   1.0,   1.7,   2.9,   0.0,  1.58, 
 07/01/04, 11:00,  -3.4,  81,   1.0,   1.7,   2.9,   0.0,  1.90, 
 07/01/04, 12:00,  -2.3,  73,   1.1,   1.7,   2.9,   0.0,  1.99, 
 07/01/04, 13:00,  -2.3,  75,   1.1,   1.7,   2.9,   0.0,  1.91, 
 07/01/04, 14:00,  -1.1,  75,   1.1,   1.7,   2.9,   0.0,  1.90, 
 07/01/04, 15:00,  -2.0,  80,   1.1,   1.7,   2.9,   0.0,  1.82, 
 07/01/04, 16:00,  -2.6,  82,   1.1,   1.7,   2.9,   0.0,  1.89, 
 07/01/04, 17:00,  -3.6,  85,   1.0,   1.7,   2.9,   0.0,  1.94, 
 07/01/04, 18:00,  -4.3,  88,   1.0,   1.7,   2.9,   0.0,  1.95, 
 07/01/04, 19:00,  -5.7,  92,   1.0,   1.7,   2.9,   0.0,  1.97, 
 07/01/04, 20:00,  -4.7,  91,   1.0,   1.7,   2.9,   0.0,  1.90, 
 07/01/04, 21:00,  -4.7,  94,   1.0,   1.7,   2.9,   0.0,  1.93, 
 07/01/04, 22:00,  -5.4,  96,   1.0,   1.7,   2.9,   0.0,  1.96, 
 07/01/04, 23:00,  -5.4,  91,   1.0,   1.7,   2.9,   0.0,  1.94, 
 07/01/05, 00:00,  -6.9,  95,   1.0,   1.7,   2.9,   0.0,  1.93, 
 07/01/05, 01:00,  -7.7,  93,   1.0,   1.7,   2.9,   0.0,  1.66, 
 07/01/05, 02:00,  -7.8,  93,   1.0,   1.7,   2.9,   0.0,  1.95, 
 07/01/05, 03:00,  -7.8,  92,   1.0,   1.7,   2.9,   0.0,  1.89, 
 07/01/05, 04:00,  -7.0,  91,   1.0,   1.7,   2.9,   0.0,  1.88, 
 07/01/05, 05:00,  -6.9,  85,   1.0,   1.7,   2.9,   0.0,  1.88, 
 07/01/05, 06:00,  -7.1,  86,   0.9,   1.7,   2.9,   0.0,  1.79, 
 07/01/05, 07:00,  -6.8,  87,   0.9,   1.7,   2.9,   0.0,  1.83, 
 07/01/05, 08:00,  -6.5,  89,   0.9,   1.7,   2.9,   0.0,  1.80, 
 07/01/05, 09:00,  -3.9,  85,   0.9,   1.5,   2.8,   0.0,  1.71, 
 07/01/05, 10:00,  -1.5,  68,   0.9,   1.5,   2.8,   0.0,  1.81, 
 07/01/05, 11:00,  -0.7,  63,   0.9,   1.6,   2.9,   0.0,  1.94, 
 07/01/05, 12:00,   0.6,  58,   0.9,   1.6,   2.9,   0.0,  1.98, 
 07/01/05, 13:00,   1.7,  52,   0.9,   1.6,   2.9,   0.0,  1.98, 
 07/01/05, 14:00,   2.4,  55,   0.9,   1.6,   2.9,   0.0,  1.98, 
 07/01/05, 15:00,   1.9,  52,   0.9,   1.6,   2.9,   0.0,  1.96, 
 07/01/05, 16:00,   2.0,  49,   0.8,   1.6,   2.9,   0.0,  1.94, 
 07/01/05, 17:00,  -0.8,  71,   0.9,   1.6,   2.9,   0.0,  1.96, 
 07/01/05, 18:00,  -0.3,  52,   0.8,   1.6,   2.9,   0.0,  1.97, 
 07/01/05, 19:00,  -1.4,  60,   0.8,   1.6,   2.9,   0.0,  1.94, 
 07/01/05, 20:00,  -1.3,  54,   0.8,   1.6,   2.9,   0.0,  1.96, 
 07/01/05, 21:00,  -1.0,  50,   0.8,   1.6,   2.9,   0.0,  1.98, 
 07/01/05, 22:00,  -0.2,  54,   0.8,   1.6,   2.9,   0.0,  1.96, 
 07/01/05, 23:00,  -1.6,  67,   0.8,   1.6,   2.9,   0.0,  1.99, 
 07/01/06, 00:00,  -1.1,  76,   0.8,   1.6,   2.9,   0.0,  1.94, 
 07/01/06, 01:00,  -2.3,  93,   0.8,   1.6,   2.9,   0.0,  1.68, 
 07/01/06, 02:00,  -1.2,  99,   0.8,   1.6,   2.9,   1.5,  1.96, 
 07/01/06, 03:00,  -1.3,  99,   0.8,   1.6,   2.9,   1.5,  1.95, 
 07/01/06, 04:00,  -1.5,  99,   0.8,   1.6,   2.9,   0.5,  1.97, 
 07/01/06, 05:00,   0.4,  98,   0.8,   1.6,   2.9,   0.5,  1.95, 
 07/01/06, 06:00,   0.5,  99,   0.8,   1.6,   2.9,   1.0,  1.96, 
 07/01/06, 07:00,  -0.3,  99,   0.8,   1.6,   2.9,   1.5,  1.96, 
 07/01/06, 08:00,   0.3,  99,   0.8,   1.6,   2.9,   2.0,  1.96, 
 07/01/06, 09:00,   0.4,  99,   0.8,   1.6,   2.9,   1.0,  1.98, 
 07/01/06, 10:00,   0.4,  99,   0.8,   1.6,   2.9,   1.0,  1.99, 
 07/01/06, 11:00,   0.4,  99,   0.8,   1.6,   2.9,   2.0,  1.95, 
 07/01/06, 12:00,   0.5,  99,   0.8,   1.6,   2.9,   2.0,  1.96, 
 07/01/06, 13:00,   0.0,  99,   0.8,   1.6,   2.9,   2.0,  1.94, 
 07/01/06, 14:00,  -0.1,  99,   0.8,   1.6,   2.9,   4.0,  1.99, 
 07/01/06, 15:00,   0.1,  99,   0.8,   1.6,   2.9,   1.5,  1.99, 
 07/01/06, 16:00,   0.4,  97,   0.8,   1.6,   2.9,   1.0,  1.97, 
 07/01/06, 17:00,  -0.5,  99,   0.8,   1.6,   2.9,   0.0,  1.96, 
 07/01/06, 18:00,  -1.3,  99,   0.8,   1.6,   2.9,   0.0,  1.97, 
 07/01/06, 19:00,  -0.9,  94,   0.8,   1.6,   2.9,   0.0,  1.91, 
 07/01/06, 20:00,  -1.2,  99,   0.9,   1.6,   2.9,   0.0,  1.89, 
 07/01/06, 21:00,  -1.5,  99,   0.9,   1.6,   2.9,   0.5,  1.86, 
 07/01/06, 22:00,  -1.9,  99,   0.9,   1.5,   2.9,   0.0,  1.90, 
 07/01/06, 23:00,  -2.6,  97,   0.9,   1.5,   2.9,   0.0,  1.90, 
 07/01/07, 00:00,  -4.1,  93,   0.9,   1.6,   2.9,   0.0,  1.91, 
 07/01/07, 01:00,  -4.5,  97,   0.9,   1.6,   2.9,   0.5,  1.64, 
 07/01/07, 02:00,  -4.9,  97,   0.9,   1.6,   2.9,   0.0,  1.91, 
 07/01/07, 03:00,  -5.5,  97,   0.9,   1.6,   2.9,   0.0,  1.84, 
 07/01/07, 04:00,  -6.4,  96,   0.9,   1.5,   2.8,   0.0,  1.88, 
 07/01/07, 05:00,  -6.6,  95,   0.9,   1.5,   2.8,   0.0,  1.89, 
 07/01/07, 06:00,  -6.8,  95,   0.9,   1.5,   2.8,   1.0,  1.87, 
 07/01/07, 07:00,  -6.9,  94,   0.9,   1.6,   2.9,   2.5,  1.84, 
 07/01/07, 08:00,  -6.7,  95,   0.9,   1.6,   2.8,   1.5,  1.84, 
 07/01/07, 09:00,  -6.5,  96,   0.9,   1.5,   2.8,   1.0,  1.82, 
 07/01/07, 10:00,  -6.6,  95,   0.9,   1.5,   2.8,   3.5,  1.84, 
 07/01/07, 11:00,  -6.7,  95,   0.9,   1.6,   2.9,   5.0,  1.84, 
 07/01/07, 12:00,  -6.3,  96,   0.9,   1.5,   2.9,   4.0,  1.83, 
 07/01/07, 13:00,  -4.5,  99,   0.9,   1.6,   2.8,   4.0,  1.78, 
 07/01/07, 14:00,  -4.3,  99,   0.9,   1.5,   2.8,   3.0,  1.73, 
 07/01/07, 15:00,  -4.3,  99,   0.9,   1.5,   2.8,   2.5,  1.81, 
 07/01/07, 16:00,  -4.9,  99,   0.9,   1.5,   2.8,   2.0,  1.74, 
 07/01/07, 17:00,  -5.3,  98,   0.9,   1.5,   2.8,   1.0,  1.70, 
 07/01/07, 18:00,  -5.7,  98,   0.9,   1.5,   2.9,   1.0,  1.72, 
 07/01/07, 19:00,  -6.0,  97,   0.9,   1.5,   2.9,   1.5,  1.73, 
 07/01/07, 20:00,  -6.1,  96,   0.9,   1.5,   2.8,   2.0,  1.71, 
 07/01/07, 21:00,  -6.1,  97,   0.9,   1.5,   2.9,   3.5,  1.66, 
 07/01/07, 22:00,  -6.2,  97,   0.9,   1.5,   2.9,   2.5,  1.66, 
 07/01/07, 23:00,  -6.3,  95,   0.9,   1.5,   2.8,   2.5,  1.62, 
 07/01/08, 00:00,  -6.2,  96,   0.9,   1.5,   2.8,   0.5,  1.62, 
 07/01/08, 01:00,  -6.0,  96,   0.9,   1.5,   2.8,   1.5,  1.37, 
 07/01/08, 02:00,  -6.1,  94,   0.9,   1.5,   2.8,   1.5,  1.64, 
 07/01/08, 03:00,  -6.1,  94,   0.9,   1.5,   2.8,   1.5,  1.59, 
 07/01/08, 04:00,  -6.4,  93,   0.9,   1.5,   2.8,   0.0,  1.59, 
 07/01/08, 05:00,  -6.2,  93,   0.9,   1.5,   2.8,   1.5,  1.58, 
 07/01/08, 06:00,  -6.3,  95,   0.9,   1.5,   2.8,   1.0,  1.58, 
 07/01/08, 07:00,  -6.1,  93,   0.9,   1.5,   2.8,   0.5,  1.55, 
 07/01/08, 08:00,  -6.0,  92,   0.9,   1.5,   2.8,   0.5,  1.54, 
 07/01/08, 09:00,  -5.9,  94,   0.9,   1.5,   2.8,   1.0,  1.52, 
 07/01/08, 10:00,  -5.5,  96,   0.9,   1.5,   2.8,   0.5,  1.55, 
 07/01/08, 11:00,  -4.8,  96,   0.9,   1.5,   2.8,   0.0,  1.58, 
 07/01/08, 12:00,  -4.2,  99,   0.9,   1.5,   2.8,   1.0,  1.64, 
 07/01/08, 13:00,  -4.6,  99,   0.9,   1.5,   2.8,   7.5,  1.63, 
 07/01/08, 14:00,  -5.2,  93,   0.9,   1.5,   2.8,   1.5,  1.67, 
 07/01/08, 15:00,  -5.6,  92,   0.9,   1.5,   2.8,   1.5,  1.63, 
 07/01/08, 16:00,  -6.0,  91,   0.9,   1.6,   2.8,   0.5,  1.62, 
 07/01/08, 17:00,  -6.6,  92,   0.9,   1.5,   2.8,   0.0,  1.64, 
 07/01/08, 18:00,  -6.9,  90,   0.9,   1.5,   2.8,   1.0,  1.56, 
 07/01/08, 19:00,  -7.1,  91,   0.9,   1.5,   2.8,   0.0,  1.56, 
 07/01/08, 20:00,  -7.5,  91,   0.9,   1.5,   2.8,   0.5,  1.52, 
 07/01/08, 21:00,  -7.6,  90,   0.9,   1.6,   2.8,   0.5,  1.50, 
 07/01/08, 22:00,  -7.9,  88,   0.9,   1.5,   2.8,   0.0,  1.51, 
 07/01/08, 23:00,  -8.0,  88,   0.9,   1.5,   2.8,   0.0,  1.47, 
 07/01/09, 00:00,  -8.3,  90,   0.8,   1.5,   2.8,   0.0,  1.44, 
 07/01/09, 01:00,  -8.3,  88,   0.8,   1.5,   2.8,   0.0,  1.22, 
 07/01/09, 02:00,  -8.6,  91,   0.9,   1.5,   2.8,   0.0,  1.38, 
 07/01/09, 03:00,  -8.6,  91,   0.8,   1.5,   2.8,   0.0,  1.33, 
 07/01/09, 04:00,  -7.6,  91,   0.9,   1.5,   2.8,   0.0,  1.35, 
 07/01/09, 05:00,  -7.8,  91,   0.9,   1.5,   2.8,   0.5,  1.35, 
 07/01/09, 06:00,  -7.9,  86,   0.8,   1.5,   2.8,   0.0,  1.33, 
 07/01/09, 07:00,  -8.2,  84,   0.9,   1.5,   2.8,   0.0,  1.30, 
 07/01/09, 08:00,  -7.6,  84,   0.8,   1.5,   2.8,   0.0,  1.28, 
 07/01/09, 09:00,  -6.7,  93,   0.9,   1.5,   2.8,   0.0,  1.26, 
 07/01/09, 10:00,  -5.8,  96,   0.9,   1.5,   2.8,   0.0,  1.36, 
 07/01/09, 11:00,  -4.9,  90,   0.9,   1.5,   2.8,   0.0,  1.59, 
 07/01/09, 12:00,  -4.2,  81,   0.9,   1.6,   2.9,   0.0,  1.71, 
 07/01/09, 13:00,  -4.2,  95,   0.9,   1.5,   2.8,   0.0,  1.78, 
 07/01/09, 14:00,  -4.0,  93,   0.9,   1.5,   2.8,   0.0,  1.77, 
 07/01/09, 15:00,  -3.4,  92,   0.9,   1.5,   2.8,   1.0,  1.76, 
 07/01/09, 16:00,  -4.3,  91,   0.9,   1.6,   2.8,   0.5,  1.82, 
 07/01/09, 17:00,  -5.9,  85,   0.9,   1.6,   2.9,   0.0,  1.79, 
 07/01/09, 18:00,  -6.6,  79,   0.9,   1.5,   2.8,   0.0,  1.79, 
 07/01/09, 19:00,  -6.9,  80,   0.9,   1.5,   2.8,   0.0,  1.77, 
 07/01/09, 20:00,  -7.3,  80,   0.9,   1.5,   2.8,   0.0,  1.71, 
 07/01/09, 21:00,  -7.3,  81,   0.9,   1.6,   2.8,   0.0,  1.69, 
 07/01/09, 22:00,  -6.4,  75,   0.9,   1.5,   2.8,   0.0,  1.67, 
 07/01/09, 23:00,  -6.0,  79,   0.9,   1.5,   2.8,   0.0,  1.63, 
 07/01/10, 00:00,  -4.7,  74,   0.9,   1.5,   2.8,   0.0,  1.59, 
 07/01/10, 01:00,  -4.7,  75,   0.9,   1.5,   2.8,   0.0,  1.35, 
 07/01/10, 02:00,  -6.0,  90,   0.9,   1.5,   2.8,   0.0,  1.53, 
 07/01/10, 03:00,  -6.4,  91,   0.9,   1.6,   2.8,   0.0,  1.51, 
 07/01/10, 04:00,  -6.0,  90,   0.9,   1.5,   2.8,   0.0,  1.49, 
 07/01/10, 05:00,  -6.0,  89,   0.9,   1.5,   2.8,   0.0,  1.51, 
 07/01/10, 06:00,  -6.2,  90,   0.9,   1.5,   2.8,   0.0,  1.49, 
 07/01/10, 07:00,  -6.3,  90,   0.9,   1.5,   2.8,   0.0,  1.49, 
 07/01/10, 08:00,  -5.1,  88,   0.9,   1.5,   2.8,   0.0,  1.47, 
 07/01/10, 09:00,  -3.9,  86,   0.9,   1.5,   2.8,   0.0,  1.47, 
 07/01/10, 10:00,  -2.7,  85,   0.9,   1.5,   2.8,   0.0,  1.49, 
 07/01/10, 11:00,  -1.7,  76,   0.9,   1.5,   2.9,   0.0,  1.66, 
 07/01/10, 12:00,  -2.5,  85,   0.9,   1.6,   2.8,   0.0,  1.77, 
 07/01/10, 13:00,  -2.3,  92,   0.9,   1.6,   2.9,   0.0,  1.80, 
 07/01/10, 14:00,  -3.0,  93,   0.9,   1.5,   2.8,   0.0,  1.77, 
 07/01/10, 15:00,  -2.9,  91,   0.9,   1.6,   2.9,   0.0,  1.78, 
 07/01/10, 16:00,  -3.1,  87,   0.9,   1.6,   2.9,   0.0,  1.73, 
 07/01/10, 17:00,  -3.4,  81,   0.9,   1.6,   2.8,   0.0,  1.73, 
 07/01/10, 18:00,  -3.6,  81,   0.9,   1.5,   2.8,   0.5,  1.75, 
 07/01/10, 19:00,  -3.9,  87,   0.9,   1.5,   2.8,   0.0,  1.75, 
 07/01/10, 20:00,  -4.3,  94,   0.9,   1.5,   2.8,   0.0,  1.73, 
 07/01/10, 21:00,  -3.9,  86,   0.9,   1.6,   2.9,   0.0,  1.71, 
 07/01/10, 22:00,  -4.4,  93,   0.9,   1.6,   2.8,   0.0,  1.66, 
 07/01/10, 23:00,  -4.1,  89,   0.9,   1.6,   2.8,   0.5,  1.64, 
 07/01/11, 00:00,  -4.4,  90,   0.9,   1.6,   2.8,   0.0,  1.69, 
 07/01/11, 01:00,  -4.7,  89,   0.9,   1.6,   2.8,   0.0,  1.42, 
 07/01/11, 02:00,  -4.5,  86,   0.9,   1.6,   2.8,   0.0,  1.67, 
 07/01/11, 03:00,  -4.6,  89,   0.9,   1.5,   2.8,   0.0,  1.66, 
 07/01/11, 04:00,  -5.1,  98,   0.9,   1.5,   2.9,   0.0,  1.64, 
 07/01/11, 05:00,  -5.1,  98,   0.9,   1.5,   2.8,   0.0,  1.66, 
 07/01/11, 06:00,  -5.7,  95,   0.9,   1.5,   2.8,   0.0,  1.61, 
 07/01/11, 07:00,  -6.4,  94,   0.9,   1.5,   2.8,   0.0,  1.57, 
 07/01/11, 08:00,  -6.2,  99,   0.9,   1.5,   2.8,   0.0,  1.62, 
 07/01/11, 09:00,  -5.6,  91,   0.9,   1.5,   2.8,   0.0,  1.61, 
 07/01/11, 10:00,  -4.1,  87,   0.9,   1.6,   2.8,   0.5,  1.60, 
 07/01/11, 11:00,  -3.2,  80,   0.9,   1.6,   2.9,   0.0,  1.79, 
 07/01/11, 12:00,  -3.5,  88,   0.9,   1.5,   2.8,   0.0,  1.80, 
 07/01/11, 13:00,  -3.5,  74,   0.9,   1.5,   2.8,   0.0,  1.81, 
 07/01/11, 14:00,  -3.3,  77,   0.9,   1.5,   2.8,   0.0,  1.80, 
 07/01/11, 15:00,  -3.4,  79,   0.9,   1.6,   2.8,   0.0,  1.76, 
 07/01/11, 16:00,  -3.3,  74,   0.9,   1.6,   2.9,   0.0,  1.77, 
 07/01/11, 17:00,  -4.2,  91,   0.9,   1.5,   2.8,   0.0,  1.78, 
 07/01/11, 18:00,  -4.7,  78,   0.9,   1.5,   2.8,   0.0,  1.73, 
 07/01/11, 19:00,  -4.6,  75,   0.9,   1.6,   2.9,   0.0,  1.77, 
 07/01/11, 20:00,  -5.1,  78,   0.9,   1.6,   2.9,   0.0,  1.75, 
 07/01/11, 21:00,  -5.0,  74,   0.9,   1.5,   2.8,   0.0,  1.73, 
 07/01/11, 22:00,  -4.6,  72,   0.9,   1.6,   2.9,   0.0,  1.74, 
 07/01/11, 23:00,  -5.2,  78,   0.9,   1.5,   2.8,   0.0,  1.74, 
 07/01/12, 00:00,  -5.4,  78,   0.9,   1.5,   2.8,   0.0,  1.66, 
 07/01/12, 01:00,  -6.4,  84,   0.9,   1.5,   2.8,   0.0,  1.41, 
 07/01/12, 02:00,  -6.4,  78,   0.9,   1.5,   2.8,   0.0,  1.66, 
 07/01/12, 03:00,  -6.0,  73,   0.9,   1.5,   2.7,   0.0,  1.62, 
 07/01/12, 04:00,  -5.4,  69,   0.9,   1.5,   2.7,   0.0,  1.58, 
 07/01/12, 05:00,  -5.9,  75,   0.9,   1.5,   2.8,   0.0,  1.57, 
 07/01/12, 06:00,  -7.3,  83,   0.9,   1.5,   2.7,   0.0,  1.60, 
 07/01/12, 07:00,  -6.8,  85,   0.9,   1.5,   2.7,   0.0,  1.56, 
 07/01/12, 08:00,  -5.9,  80,   0.9,   1.5,   2.7,   0.0,  1.54, 
 07/01/12, 09:00,  -4.4,  77,   0.9,   1.5,   2.7,   0.0,  1.53, 
 07/01/12, 10:00,  -3.1,  80,   0.9,   1.5,   2.8,   0.0,  1.52, 
 07/01/12, 11:00,  -2.4,  78,   0.9,   1.5,   2.7,   0.0,  1.62, 
 07/01/12, 12:00,  -2.8,  86,   0.9,   1.5,   2.7,   0.0,  1.70, 
 07/01/12, 13:00,  -2.7,  84,   0.9,   1.6,   2.7,   0.0,  1.67, 
 07/01/12, 14:00,  -2.1,  83,   0.9,   1.5,   2.7,   0.0,  1.68, 
 07/01/12, 15:00,  -2.6,  90,   0.9,   1.5,   2.7,   0.0,  1.75, 
 07/01/12, 16:00,  -3.3,  98,   0.9,   1.5,   2.7,   0.0,  1.74, 
 07/01/12, 17:00,  -3.3,  97,   0.9,   1.5,   2.7,   0.0,  1.77, 
 07/01/12, 18:00,  -3.4,  93,   0.9,   1.5,   2.7,   0.0,  1.76, 
 07/01/12, 19:00,  -3.8,  94,   0.9,   1.6,   2.7,   0.0,  1.80, 
 07/01/12, 20:00,  -4.2,  92,   0.9,   1.6,   2.8,   0.0,  1.77, 
 07/01/12, 21:00,  -3.9,  91,   0.9,   1.5,   2.7,   0.0,  1.73, 
 07/01/12, 22:00,  -4.0,  90,   0.9,   1.5,   2.7,   0.0,  1.72, 
 07/01/12, 23:00,  -4.2,  92,   0.9,   1.5,   2.7,   0.0,  1.71, 
 07/01/13, 00:00,  -4.2,  95,   0.9,   1.5,   2.7,   0.0,  1.70, 
 07/01/13, 01:00,  -4.2,  96,   0.9,   1.5,   2.7,   0.5,  1.41, 
 07/01/13, 02:00,  -4.3,  93,   0.9,   1.5,   2.7,   0.0,  1.66, 
 07/01/13, 03:00,  -4.4,  93,   0.9,   1.5,   2.7,   0.0,  1.66, 
 07/01/13, 04:00,  -4.7,  92,   0.9,   1.5,   2.7,   0.0,  1.66, 
 07/01/13, 05:00,  -5.0,  96,   0.9,   1.5,   2.7,   0.5,  1.63, 
 07/01/13, 06:00,  -4.9,  95,   0.9,   1.5,   2.7,   0.0,  1.60, 
 07/01/13, 07:00,  -4.6,  92,   0.9,   1.5,   2.7,   0.0,  1.58, 
 07/01/13, 08:00,  -4.9,  93,   0.9,   1.5,   2.7,   0.5,  1.62, 
 07/01/13, 09:00,  -5.1,  87,   0.9,   1.5,   2.7,   0.5,  1.56, 
 07/01/13, 10:00,  -4.1,  83,   0.9,   1.5,   2.7,   0.0,  1.59, 
 07/01/13, 11:00,  -3.6,  86,   0.9,   1.6,   2.7,   0.0,  1.73, 
 07/01/13, 12:00,  -5.0,  92,   0.9,   1.5,   2.7,   0.0,  1.78, 
 07/01/13, 13:00,  -4.5,  86,   0.9,   1.6,   2.8,   0.0,  1.75, 
 07/01/13, 14:00,  -3.8,  79,   0.9,   1.6,   2.8,   0.0,  1.78, 
 07/01/13, 15:00,  -4.7,  86,   0.9,   1.6,   2.7,   0.0,  1.74, 
 07/01/13, 16:00,  -5.2,  79,   0.9,   1.6,   2.7,   0.0,  1.73, 
 07/01/13, 17:00,  -6.2,  74,   0.9,   1.5,   2.7,   0.0,  1.76, 
 07/01/13, 18:00,  -6.7,  77,   0.9,   1.6,   2.7,   0.0,  1.71, 
 07/01/13, 19:00,  -7.1,  82,   0.9,   1.5,   2.7,   0.0,  1.74, 
 07/01/13, 20:00,  -7.0,  80,   0.9,   1.5,   2.7,   0.0,  1.71, 
 07/01/13, 21:00,  -6.7,  70,   0.9,   1.5,   2.7,   0.0,  1.62, 
 07/01/13, 22:00,  -6.8,  71,   0.9,   1.5,   2.7,   0.0,  1.61, 
 07/01/13, 23:00,  -7.1,  75,   0.9,   1.5,   2.7,   0.0,  1.61, 
 07/01/14, 00:00,  -7.3,  74,   0.9,   1.5,   2.7,   0.0,  1.58, 
 07/01/14, 01:00,  -7.7,  78,   0.9,   1.5,   2.7,   0.0,  1.30, 
 07/01/14, 02:00,  -8.5,  83,   0.8,   1.5,   2.7,   0.0,  1.53, 
 07/01/14, 03:00,  -8.2,  74,   0.9,   1.5,   2.7,   0.0,  1.53, 
 07/01/14, 04:00,  -9.0,  78,   0.8,   1.5,   2.7,   0.0,  1.47, 
 07/01/14, 05:00,  -8.9,  75,   0.9,   1.5,   2.7,   0.0,  1.39, 
 07/01/14, 06:00,  -9.0,  79,   0.8,   1.5,   2.7,   0.0,  1.40, 
 07/01/14, 07:00,  -8.3,  75,   0.9,   1.5,   2.7,   0.0,  1.32, 
 07/01/14, 08:00,  -8.8,  76,   0.8,   1.5,   2.7,   0.0,  1.40, 
 07/01/14, 09:00,  -6.5,  71,   0.9,   1.5,   2.7,   0.0,  1.40, 
 07/01/14, 10:00,  -5.6,  72,   0.9,   1.5,   2.7,   0.0,  1.50, 
 07/01/14, 11:00,  -4.7,  69,   0.9,   1.5,   2.7,   0.0,  1.62, 
 07/01/14, 12:00,  -5.1,  75,   0.9,   1.5,   2.7,   0.0,  1.74, 
 07/01/14, 13:00,  -5.6,  73,   0.9,   1.5,   2.7,   0.0,  1.69, 
 07/01/14, 14:00,  -5.5,  67,   0.9,   1.5,   2.7,   0.0,  1.68, 
 07/01/14, 15:00,  -6.0,  72,   0.9,   1.6,   2.7,   0.0,  1.73, 
 07/01/14, 16:00,  -6.0,  74,   0.9,   1.6,   2.7,   0.0,  1.70, 
 07/01/14, 17:00,  -6.8,  73,   0.9,   1.5,   2.7,   0.0,  1.62, 
 07/01/14, 18:00,  -7.4,  74,   0.9,   1.5,   2.7,   0.0,  1.62, 
 07/01/14, 19:00,  -8.6,  78,   0.9,   1.5,   2.7,   0.0,  1.59, 
 07/01/14, 20:00,  -8.0,  77,   0.8,   1.5,   2.7,   0.0,  1.58, 
 07/01/14, 21:00,  -7.3,  70,   0.9,   1.5,   2.7,   0.0,  1.54, 
 07/01/14, 22:00,  -8.2,  78,   0.9,   1.5,   2.7,   0.0,  1.50, 
 07/01/14, 23:00,  -7.4,  79,   0.9,   1.5,   2.7,   0.0,  1.42, 
 07/01/15, 00:00,  -7.2,  76,   0.8,   1.5,   2.7,   0.0,  1.37, 
 07/01/15, 01:00,  -7.6,  81,   0.9,   1.5,   2.7,   0.0,  1.18, 
 07/01/15, 02:00,  -7.4,  80,   0.8,   1.5,   2.7,   0.0,  1.37, 
 07/01/15, 03:00,  -9.6,  89,   0.9,   1.5,   2.7,   0.0,  1.35, 
 07/01/15, 04:00,  -7.6,  79,   0.9,   1.5,   2.7,   0.0,  1.31, 
 07/01/15, 05:00,  -7.6,  73,   0.8,   1.5,   2.7,   0.0,  1.30, 
 07/01/15, 06:00,  -6.9,  71,   0.8,   1.5,   2.7,   0.0,  1.29, 
 07/01/15, 07:00,  -6.2,  72,   0.8,   1.5,   2.7,   0.0,  1.29, 
 07/01/15, 08:00,  -6.1,  72,   0.8,   1.5,   2.7,   0.0,  1.25, 
 07/01/15, 09:00,  -4.1,  69,   0.9,   1.5,   2.7,   0.0,  1.25, 
 07/01/15, 10:00,  -3.2,  71,   0.9,   1.5,   2.8,   0.0,  1.57, 
 07/01/15, 11:00,  -2.4,  66,   1.0,   1.6,   2.8,   0.0,  1.86, 
 07/01/15, 12:00,  -2.0,  64,   1.0,   1.6,   2.8,   0.0,  1.92, 
 07/01/15, 13:00,  -1.0,  67,   1.0,   1.6,   2.8,   0.0,  1.88, 
 07/01/15, 14:00,  -0.7,  70,   1.0,   1.6,   2.8,   0.0,  1.80, 
 07/01/15, 15:00,  -1.2,  70,   1.0,   1.6,   2.8,   0.0,  1.83, 
 07/01/15, 16:00,  -2.3,  77,   1.0,   1.6,   2.8,   0.0,  1.82, 
 07/01/15, 17:00,  -3.0,  78,   1.0,   1.6,   2.8,   0.0,  1.83, 
 07/01/15, 18:00,  -3.1,  76,   1.0,   1.6,   2.8,   0.0,  1.90, 
 07/01/15, 19:00,  -5.3,  86,   1.0,   1.6,   2.8,   0.0,  1.95, 
 07/01/15, 20:00,  -5.7,  88,   0.9,   1.6,   2.8,   0.0,  1.96, 
 07/01/15, 21:00,  -5.6,  85,   0.9,   1.6,   2.8,   0.0,  1.94, 
 07/01/15, 22:00,  -6.0,  86,   0.9,   1.6,   2.8,   0.0,  1.92, 
 07/01/15, 23:00,  -4.4,  76,   0.9,   1.6,   2.8,   0.0,  1.95, 
 07/01/16, 00:00,  -3.6,  69,   0.9,   1.6,   2.8,   0.0,  1.92, 
 07/01/16, 01:00,  -3.6,  72,   0.9,   1.6,   2.7,   0.0,  1.62, 